Powrót do katalogu

STARLINK-38227

AktywnyŁącznośćSSO
NORAD 100193·PAYLOAD·🇺🇸 United States

Wystrzelony Aug 1, 2026 z Vandenberg Space Force Base

Loading…

Następne Przeloty (najbliższe 24 godziny)

TLE

ŚwieżeSource: Space-Track

Epoka: Sep 14, 2026, 12:59 UTC

1 A0193U 26175Q   26257.54114819  .00117310  00000-0  77551-3 0  9990
2 A0193  97.2833  99.7678 0001850  34.0672 326.0712 15.75222142  8245

Śledź STARLINK-38227 w czasie rzeczywistym z AllMySat

Download on the App Store